Location: Newark
(48.1281°N, 2.1556°W)
Time: 21:38:06
(UTC+00:00)

Envisat - Pass Details

Date: 28 November 2019
Orbit: 764 x 766 km, 98.1° (Epoch: 15 December)

Event Time Altitude Azimuth Distance (km) Brightness Sun altitude
Rises 05:25:20 0° 33° (NNE) 3,242 6.6 -20.7°
Reaches altitude 10° 05:29:32 10° 67° (ENE) 2,308 6.3 -20.0°
Maximum altitude 05:31:06 11° 85° (E) 2,213 6.5 -19.8°
Drops below altitude 10° 05:32:40 10° 103° (ESE) 2,302 6.7 -19.5°
Sets 05:36:50 0° 137° (SE) 3,220 7.1 -18.8°
